If you wish to contribute or participate in the discussions about articles you are invited to join SKYbrary as a registered user

 Actions

Akita Airport

From SKYbrary Wiki

RJSK
Airport
ICAO: RJSK – IATA: AXT
Summary
Name Akita Airport
Region Asia and Pacific
Territory Japan JP.gif
Location Akita, Akita Prefecture
Serving Akita
Elevation 92.964 m
305 ft92.964 m
Coordinates 39° 36' 55.15" N, 140° 13' 4.97" E
Runways
Designator Length Width Surface ROPS
10/28 2499 m8,198.819 ft
61 m200.131 ft
ASP yes/yes


METAR
Observation RJSK 160700Z 12006KT 9999 FEW025 SCT050 BKN180 02/01 Q1017
Station Akita Airport
Date/Time 16 December 2018 07:00:00
Wind direction 120°
Wind speed 06 kts
Lowest cloud amount few clouds
Temperature 2°C
Dew point 1°C
Humidity 93%
QNH 1017 hPa
Weather condition n/a

Akita Airport is an airport located 14 km7.559 nm
14,000 m
45,931.759 ft
southeast of Akita, a city in the Akita Prefecture of Japan.

Climatology

Humid subtropical climate (Köppen climate classification Cfa).

Maps

Terrain

Loading map...

Airport Layout

Loading map...


Accidents & Serious Incidents at or in vicinity of RJSK

  • B739, Akita Japan, 2007 (On 6 January 2007, a Boeing B737-900 operated by Korean Airlines landed at Akita Airport on a taxiway parallel to the in-use runway after a daylight non-precision approach (NPA) using a head-up display (HUD). The crew realised their error during the landing roll.)